Location: Freemans Gardens
(41.6414°N, 83.6077°W)
Time: 02:15:19
(UTC+00:00)

Cosmos 2219 - Pass Details

Date: 29 October 2020
Orbit: 832 x 862 km, 71.1° (Epoch: 26 November)

Event Time Altitude Azimuth Distance (km) Brightness Sun altitude
Rises 23:09:51 0° 338° (NNW) 3,446 6.5 -7.6°
Reaches altitude 10° 23:12:21 10° 341° (NNW) 2,507 5.8 -8.1°
Maximum altitude 23:18:05 67° 64° (ENE) 933 3.2 -9.2°
Drops below altitude 10° 23:23:47 10° 147° (SSE) 2,490 5.4 -10.2°
Sets 23:26:15 0° 150° (SSE) 3,420 6.1 -10.7°
